Weather History for KASH - March, 2014

Change the Weather History Date:

Saturday, March 15, 2014

  Actual Average Record
Temperature  
Mean Temperature 44 °F -  
Max Temperature 54 °F 45 °F 74 °F (1990)
Min Temperature 34 °F 24 °F 4 °F (1993)
Degree Days  
Heating Degree Days 21    
Moisture  
Dew Point 27 °F    
Average Humidity 57    
Maximum Humidity 86    
Minimum Humidity 37    
Precipitation  
Precipitation 0.00 in - - ()
Sea Level Pressure  
Sea Level Pressure 30.50 in    
Wind  
Wind Speed 5 mph (WNW)    
Max Wind Speed 18 mph    
Max Gust Speed 33 mph    
Visibility 10 miles    
Events      
Averages and records for this station are not official NWS values.
T = Trace of Precipitation, MM = Missing Value Source: NWS Daily Summary

Daily Weather History Graph

Daily Weather History Graph

Search for Another Location

Airport or City:

Trip Planner

Search our weather history database for the weather conditions in past years. The results will help you decide how hot, cold, wet, or windy it might be!

Date:

Astronomy

Mar. 15, 2014 Rise Set
Actual Time 6:58 AM EDT 6:52 PM EDT
Civil Twilight 6:29 AM EDT 7:20 PM EDT
Nautical Twilight 5:57 AM EDT 7:53 PM EDT
Astronomical Twilight 5:23 AM EDT 8:26 PM EDT
Moon 6:08 PM EDT (3/15) 6:09 AM EDT (3/15)
Length of Visible Light 12h 50m
Length of Day
11h 54m
Waxing Gibbous, 99% of the Moon is Illuminated
Mar 15
Waxing Gibbous
Mar 16
Full
Mar 23
Last Quarter
Mar 30
New
Apr 7
First Quarter

Hourly Weather History & Observations

Time (EDT) Temp. Windchill Dew Point Humidity Pressure Visibility Wind Dir Wind Speed Gust Speed Precip Events Conditions
12:51 AM 34.0 °F - 21.0 °F 59% 30.61 in 10.0 mi Calm Calm - N/A   Clear
1:51 AM 34.9 °F 32.0 °F 24.1 °F 65% 30.59 in 10.0 mi Variable 3.5 mph - N/A   Mostly Cloudy
2:51 AM 36.0 °F 31.1 °F 24.1 °F 62% 30.55 in 10.0 mi Variable 5.8 mph - N/A   Clear
3:51 AM 36.9 °F - 24.1 °F 60% 30.51 in 10.0 mi Calm Calm - N/A   Clear
4:51 AM 37.9 °F - 25.2 °F 60% 30.49 in 10.0 mi Calm Calm - N/A   Clear
5:51 AM 36.0 °F - 28.0 °F 73% 30.49 in 10.0 mi Calm Calm - 0.00 in   Partly Cloudy
6:51 AM 37.9 °F - 31.1 °F 76% 30.47 in 10.0 mi Calm Calm - 0.00 in   Overcast
7:51 AM 36.9 °F 33.1 °F 32.0 °F 83% 30.47 in 10.0 mi Variable 4.6 mph - N/A   Overcast
8:51 AM 37.9 °F 35.5 °F 34.0 °F 86% 30.45 in 10.0 mi Variable 3.5 mph - N/A   Scattered Clouds
9:51 AM 41.0 °F 39.0 °F 34.0 °F 76% 30.43 in 10.0 mi Variable 3.5 mph - N/A   Mostly Cloudy
10:51 AM 47.8 °F - 32.0 °F 54% 30.42 in 10.0 mi Variable 3.5 mph - N/A   Partly Cloudy
11:51 AM 50.9 °F - 30.0 °F 45% 30.41 in 10.0 mi West 3.5 mph - N/A   Clear
12:51 PM 52.9 °F - 27.1 °F 37% 30.40 in 10.0 mi Variable 6.9 mph - N/A   Mostly Cloudy
1:51 PM 54.0 °F - 28.0 °F 37% 30.39 in 10.0 mi West 9.2 mph 20.7 mph N/A   Mostly Cloudy
2:51 PM 45.9 °F 39.7 °F 34.9 °F 66% 30.44 in 10.0 mi NNW 13.8 mph 28.8 mph 0.00 in   Mostly Cloudy
3:51 PM 50.9 °F - 30.0 °F 45% 30.44 in 10.0 mi NNW 15.0 mph 33.4 mph N/A   Scattered Clouds
4:51 PM 47.8 °F - 28.0 °F 46% 30.46 in 10.0 mi NW 13.8 mph 33.4 mph N/A   Scattered Clouds
5:51 PM 46.9 °F - 27.1 °F 46% 30.50 in 10.0 mi WNW 12.7 mph 33.4 mph N/A   Scattered Clouds
6:51 PM 45.0 °F 39.3 °F 26.1 °F 48% 30.54 in 10.0 mi NW 11.5 mph 19.6 mph N/A   Scattered Clouds
7:51 PM 41.9 °F 40.0 °F 26.1 °F 53% 30.56 in 10.0 mi NW 3.5 mph 13.8 mph N/A   Scattered Clouds
8:51 PM 41.0 °F 36.4 °F 26.1 °F 55% 30.58 in 10.0 mi Variable 6.9 mph - N/A   Clear
9:51 PM 41.9 °F 35.4 °F 25.2 °F 52% 30.59 in 10.0 mi WNW 11.5 mph 26.5 mph N/A   Clear
10:51 PM 39.9 °F 31.4 °F 22.1 °F 49% 30.60 in 10.0 mi WNW 16.1 mph 33.4 mph N/A   Clear
11:51 PM 36.0 °F 25.6 °F 16.2 °F 45% 30.61 in 10.0 mi WNW 18.4 mph 28.8 mph N/A   Clear